Location: Les Jeannots
(43.2262°N, 5.5774°E)
Time: 02:51:07
(UTC+00:00)

Atlas Centaur 2 - Pass Details

Date: 05 July 2020
Orbit: 459 x 1310 km, 30.4° (Epoch: 04 August)

Event Time Altitude Azimuth Distance (km) Brightness Sun altitude
Rises 20:27:05 0° 242° (WSW) 3,224 5.5 -10.3°
Reaches altitude 10° 20:29:44 10° 229° (SW) 2,439 4.7 -10.6°
Maximum altitude 20:34:31 26° 175° (S) 1,797 3.5 -11.2°
Enters shadow 20:38:46 15° 130° (SE) 2,535 4.0 -11.7°
